When you browse on this site, cookies collect data to enhance your experience and personalize the content and advertising you see.
Visit our Privacy Policy to learn more. By continuing to use the site, you agree to this use of cookies and data.
  • în România
  • Lista ţărilor
  • Pe 7 zile
  • Temperatura apei
  • Meteo pe hartă
  • Widget-uri
  • user-avatar
    Intrare

    Meteo pe oră la Irbid

    Astăzi, 25 August, Duminică

    Timp Temperatura Precipitaţii Vânt Presiune Umiditate
    00:00 +22°C° 0 mm 1 m/s 708 mmHg 77%
    01:00 +22°C° 0 mm 1 m/s 707 mmHg 78%
    02:00 +22°C° 0 mm 1 m/s 707 mmHg 80%
    03:00 +21°C° 0 mm 1 m/s 707 mmHg 82%
    04:00 +21°C° 0 mm 1 m/s 708 mmHg 84%
    05:00 +21°C° 0 mm 1 m/s 708 mmHg 87%
    06:00 +23°C° 0 mm 1 m/s 708 mmHg 76%
    07:00 +26°C° 0 mm 2 m/s 709 mmHg 65%
    08:00 +28°C° 0 mm 2 m/s 709 mmHg 54%
    09:00 +30°C° 0 mm 3 m/s 709 mmHg 47%
    10:00 +33°C° 0 mm 3 m/s 710 mmHg 40%
    11:00 +35°C° 0 mm 4 m/s 710 mmHg 33%
    12:00 +36°C° 0 mm 5 m/s 709 mmHg 30%
    13:00 +38°C° 0 mm 6 m/s 709 mmHg 28%
    14:00 +39°C° 0 mm 8 m/s 709 mmHg 26%
    15:00 +38°C° 0 mm 7 m/s 709 mmHg 30%
    16:00 +35°C° 0 mm 6 m/s 708 mmHg 33%
    17:00 +33°C° 0 mm 6 m/s 708 mmHg 37%
    18:00 +30°C° 0 mm 5 m/s 708 mmHg 46%
    19:00 +27°C° 0 mm 3 m/s 708 mmHg 54%
    20:00 +25°C° 0 mm 2 m/s 708 mmHg 63%
    21:00 +24°C° 0 mm 2 m/s 708 mmHg 64%
    22:00 +23°C° 0 mm 1 m/s 708 mmHg 65%
    23:00 +22°C° 0 mm 1 m/s 708 mmHg 66%

    Mâine, 26 August, Luni

    Timp Temperatura Precipitaţii Vânt Presiune Umiditate
    00:00 +22°C° 0 mm 1 m/s 708 mmHg 67%
    01:00 +21°C° 0 mm 1 m/s 707 mmHg 68%
    02:00 +19°C° 0 mm 0 m/s 707 mmHg 68%
    03:00 +18°C° 0 mm 0 m/s 707 mmHg 71%
    04:00 +18°C° 0 mm 0 m/s 707 mmHg 73%
    05:00 +17°C° 0 mm 0 m/s 707 mmHg 76%
    06:00 +23°C° 0 mm 1 m/s 708 mmHg 64%
    07:00 +26°C° 0 mm 1 m/s 709 mmHg 52%
    08:00 +29°C° 0 mm 2 m/s 709 mmHg 40%
    09:00 +31°C° 0 mm 2 m/s 710 mmHg 35%
    10:00 +33°C° 0 mm 3 m/s 710 mmHg 30%
    11:00 +35°C° 0 mm 4 m/s 710 mmHg 25%
    12:00 +36°C° 0 mm 4 m/s 710 mmHg 25%
    13:00 +37°C° 0 mm 5 m/s 709 mmHg 24%
    14:00 +39°C° 0 mm 6 m/s 709 mmHg 24%
    15:00 +38°C° 0 mm 6 m/s 709 mmHg 26%
    16:00 +35°C° 0 mm 6 m/s 709 mmHg 29%
    17:00 +33°C° 0 mm 5 m/s 708 mmHg 31%
    18:00 +30°C° 0 mm 4 m/s 708 mmHg 40%
    19:00 +27°C° 0 mm 3 m/s 708 mmHg 48%
    20:00 +25°C° 0 mm 2 m/s 708 mmHg 56%
    21:00 +24°C° 0 mm 2 m/s 708 mmHg 58%
    22:00 +23°C° 0 mm 1 m/s 708 mmHg 60%
    23:00 +22°C° 0 mm 1 m/s 708 mmHg 61%

    Poimâine, 27 August, Marţi

    Timp Temperatura Precipitaţii Vânt Presiune Umiditate
    00:00 +22°C° 0 mm 1 m/s 708 mmHg 63%
    01:00 +21°C° 0 mm 1 m/s 708 mmHg 66%
    02:00 +21°C° 0 mm 1 m/s 708 mmHg 68%
    03:00 +20°C° 0 mm 1 m/s 708 mmHg 71%
    04:00 +20°C° 0 mm 1 m/s 708 mmHg 73%
    05:00 +19°C° 0 mm 1 m/s 707 mmHg 76%
    06:00 +22°C° 0 mm 1 m/s 708 mmHg 65%
    07:00 +25°C° 0 mm 2 m/s 709 mmHg 55%
    08:00 +28°C° 0 mm 2 m/s 709 mmHg 44%
    09:00 +30°C° 0 mm 3 m/s 709 mmHg 38%
    10:00 +33°C° 0 mm 3 m/s 710 mmHg 33%
    11:00 +35°C° 0 mm 3 m/s 710 mmHg 27%
    12:00 +36°C° 0 mm 5 m/s 710 mmHg 27%
    13:00 +36°C° 0 mm 6 m/s 709 mmHg 27%
    14:00 +38°C° 0 mm 7 m/s 709 mmHg 28%
    15:00 +36°C° 0 mm 7 m/s 709 mmHg 31%
    16:00 +34°C° 0 mm 6 m/s 708 mmHg 35%
    17:00 +32°C° 0 mm 5 m/s 708 mmHg 39%
    18:00 +29°C° 0 mm 5 m/s 708 mmHg 49%
    19:00 +26°C° 0 mm 4 m/s 708 mmHg 59%
    20:00 +24°C° 0 mm 3 m/s 708 mmHg 69%
    21:00 +22°C° 0 mm 3 m/s 708 mmHg 74%
    22:00 +23°C° 0 mm 2 m/s 708 mmHg 78%
    23:00 +21°C° 0 mm 2 m/s 708 mmHg 83%

    28 August, Miercuri

    Timp Temperatura Precipitaţii Vânt Presiune Umiditate
    00:00 +21°C° 0 mm 2 m/s 708 mmHg 86%
    01:00 +21°C° 0 mm 1 m/s 707 mmHg 90%
    02:00 +21°C° 0 mm 1 m/s 707 mmHg 93%
    03:00 +20°C° 0 mm 1 m/s 707 mmHg 93%
    04:00 +20°C° 0 mm 1 m/s 707 mmHg 94%
    05:00 +20°C° 0 mm 1 m/s 707 mmHg 94%
    06:00 +22°C° 0 mm 1 m/s 707 mmHg 85%
    07:00 +24°C° 0 mm 2 m/s 708 mmHg 75%
    08:00 +26°C° 0 mm 2 m/s 708 mmHg 66%
    09:00 +28°C° 0 mm 3 m/s 708 mmHg 57%
    10:00 +30°C° 0 mm 3 m/s 708 mmHg 47%
    11:00 +33°C° 0 mm 4 m/s 708 mmHg 38%
    12:00 +35°C° 0 mm 5 m/s 708 mmHg 35%
    13:00 +36°C° 0 mm 6 m/s 708 mmHg 33%
    14:00 +38°C° 0 mm 8 m/s 708 mmHg 30%
    15:00 +35°C° 0 mm 7 m/s 707 mmHg 37%
    16:00 +33°C° 0 mm 7 m/s 707 mmHg 44%
    17:00 +30°C° 0 mm 6 m/s 707 mmHg 50%
    18:00 +28°C° 0 mm 5 m/s 707 mmHg 62%
    19:00 +26°C° 0 mm 4 m/s 707 mmHg 73%
    20:00 +24°C° 0 mm 2 m/s 707 mmHg 85%
    21:00 +23°C° 0 mm 2 m/s 707 mmHg 86%
    22:00 +23°C° 0 mm 2 m/s 707 mmHg 87%
    23:00 +23°C° 0 mm 2 m/s 707 mmHg 88%

    29 August, Joi

    Timp Temperatura Precipitaţii Vânt Presiune Umiditate
    00:00 +21°C° 0 mm 2 m/s 707 mmHg 89%
    01:00 +21°C° 0 mm 2 m/s 707 mmHg 90%
    02:00 +22°C° 0 mm 1 m/s 707 mmHg 91%
    03:00 +21°C° 0 mm 1 m/s 707 mmHg 91%
    04:00 +21°C° 0 mm 1 m/s 707 mmHg 92%
    05:00 +20°C° 0 mm 1 m/s 707 mmHg 92%
    06:00 +22°C° 0 mm 1 m/s 707 mmHg 83%
    07:00 +25°C° 0 mm 2 m/s 708 mmHg 75%
    08:00 +27°C° 0 mm 2 m/s 708 mmHg 66%
    09:00 +29°C° 0 mm 3 m/s 708 mmHg 56%
    10:00 +31°C° 0 mm 3 m/s 708 mmHg 46%
    11:00 +34°C° 0 mm 4 m/s 708 mmHg 36%
    12:00 +35°C° 0 mm 5 m/s 708 mmHg 34%
    13:00 +36°C° 0 mm 6 m/s 708 mmHg 31%
    14:00 +38°C° 0 mm 8 m/s 707 mmHg 28%
    15:00 +35°C° 0 mm 7 m/s 707 mmHg 34%
    16:00 +33°C° 0 mm 7 m/s 707 mmHg 40%
    17:00 +32°C° 0 mm 7 m/s 707 mmHg 47%
    18:00 +28°C° 0 mm 6 m/s 707 mmHg 59%
    19:00 +26°C° 0 mm 4 m/s 707 mmHg 71%
    20:00 +24°C° 0 mm 3 m/s 707 mmHg 84%
    21:00 +22°C° 0 mm 3 m/s 707 mmHg 86%
    22:00 +23°C° 0 mm 2 m/s 707 mmHg 87%
    23:00 +21°C° 0 mm 2 m/s 707 mmHg 89%

    30 August, Vineri

    Timp Temperatura Precipitaţii Vânt Presiune Umiditate
    00:00 +23°C° 0 mm 2 m/s 707 mmHg 91%
    01:00 +23°C° 0 mm 2 m/s 707 mmHg 93%
    02:00 +23°C° 0 mm 2 m/s 707 mmHg 94%
    03:00 +21°C° 0 mm 2 m/s 707 mmHg 94%
    04:00 +21°C° 0 mm 2 m/s 707 mmHg 94%
    05:00 +20°C° 0 mm 2 m/s 707 mmHg 94%
    06:00 +23°C° 0 mm 2 m/s 707 mmHg 85%
    07:00 +25°C° 0 mm 2 m/s 708 mmHg 75%
    08:00 +27°C° 0 mm 3 m/s 708 mmHg 66%
    09:00 +29°C° 0 mm 3 m/s 708 mmHg 55%
    10:00 +31°C° 0 mm 3 m/s 708 mmHg 45%
    11:00 +34°C° 0 mm 3 m/s 708 mmHg 34%
    12:00 +35°C° 0 mm 5 m/s 708 mmHg 32%
    13:00 +36°C° 0 mm 6 m/s 708 mmHg 30%
    14:00 +38°C° 0 mm 8 m/s 708 mmHg 29%
    15:00 +35°C° 0 mm 7 m/s 708 mmHg 33%
    16:00 +33°C° 0 mm 7 m/s 707 mmHg 37%
    17:00 +32°C° 0 mm 6 m/s 707 mmHg 42%
    18:00 +28°C° 0 mm 5 m/s 707 mmHg 52%
    19:00 +26°C° 0 mm 4 m/s 707 mmHg 62%
    20:00 +24°C° 0 mm 3 m/s 707 mmHg 73%
    21:00 +23°C° 0 mm 2 m/s 707 mmHg 76%
    22:00 +21°C° 0 mm 2 m/s 707 mmHg 80%
    23:00 +21°C° 0 mm 2 m/s 707 mmHg 83%
    Arată mai mult